This is the latest recevied weather packets stored in our database for station/object OH2EGI-2. If no packets are shown the sender has not sent any weather packets the latest 10 day(s).
| Time | Temp. | Humidity | Pressure | Rain* | Wind** | Luminosity | Snow |
|---|---|---|---|---|---|---|---|
| 1777104137 | 10.56° C | 69% | 984.4 hPa | 0 mm | - | - | - |
| 1777103837 | 10.56° C | 70% | 984.2 hPa | 0 mm | - | - | - |
| 1777103537 | 10° C | 73% | 984.4 hPa | 0 mm | - | - | - |
| 1777103237 | 9.44° C | 73% | 984.4 hPa | 0 mm | - | - | - |
| 1777102937 | 8.89° C | 74% | 984.4 hPa | 0 mm | - | - | - |
| 1777102637 | 8.33° C | 75% | 984.5 hPa | 0 mm | - | - | - |
| 1777102337 | 7.78° C | 75% | 984.6 hPa | 0 mm | - | - | - |
| 1777102038 | 7.78° C | 75% | 984.5 hPa | 0 mm | - | - | - |
| 1777101737 | 7.78° C | 75% | 984.5 hPa | 0 mm | - | - | - |
| 1777101437 | 7.78° C | 76% | 984.6 hPa | 0 mm | - | - | - |
| 1777101137 | 7.78° C | 76% | 984.6 hPa | 0 mm | - | - | - |
| 1777100837 | 7.22° C | 76% | 984.8 hPa | 0 mm | - | - | - |
| 1777100537 | 6.67° C | 77% | 984.7 hPa | 0 mm | - | - | - |
| 1777100238 | 6.67° C | 77% | 984.8 hPa | 0 mm | - | - | - |
| 1777099937 | 6.11° C | 76% | 984.9 hPa | 0 mm | - | - | - |
| 1777099638 | 6.11° C | 77% | 984.9 hPa | 0 mm | - | - | - |
| 1777099337 | 6.11° C | 77% | 984.9 hPa | 0 mm | - | - | - |
| 1777099038 | 6.11° C | 77% | 985 hPa | 0 mm | - | - | - |
| 1777098738 | 5.56° C | 77% | 985.2 hPa | 0 mm | - | - | - |
| 1777098438 | 5.56° C | 77% | 985.2 hPa | 0 mm | - | - | - |
| 1777098138 | 5.56° C | 77% | 985.2 hPa | 0 mm | - | - | - |
| 1777097838 | 5.56° C | 77% | 985.4 hPa | 0 mm | - | - | - |
| 1777097538 | 5.56° C | 76% | 985.4 hPa | 0 mm | - | - | - |
| 1777097238 | 5.56° C | 76% | 985.4 hPa | 0 mm | - | - | - |
| 1777096938 | 5° C | 77% | 985.4 hPa | 0 mm | - | - | - |
* Rain latest hour (hover to see other rain measurements)
** Current wind speed in m/s (hover to see current wind gust speed)